| time (UTC) | temp F | wind direction | speed knots | gust knots | rain 1hr in | rain 24hr in | rain mn in | humidity % | barometer mb |
| 20260509071040 | 56 | 239 | 0.0 | 3.5 | 0.00 | 0.53 | 0.00 | 97 | 1009.4 |
| 20260509070640 | 56 | 192 | 0.0 | 5.2 | 0.00 | 0.53 | 0.00 | 97 | 1009.4 |
| 20260509070105 | 56 | 236 | 1.7 | 5.2 | 0.00 | 0.53 | 0.00 | 97 | 1009.7 |
| 20260509065555 | 56 | 209 | 0.9 | 2.6 | 0.00 | 0.53 | 0.00 | 97 | 1009.6 |
| 20260509065055 | 56 | 191 | 0.9 | 2.6 | 0.00 | 0.53 | 0.00 | 97 | 1009.5 |
| 20260509064555 | 56 | 277 | 0.9 | 2.6 | 0.00 | 0.53 | 0.00 | 97 | 1009.7 |
| 20260509064054 | 56 | 188 | 0.0 | 2.6 | 0.00 | 0.53 | 0.00 | 97 | 1009.7 |
| 20260509063553 | 56 | 188 | 0.9 | 2.6 | 0.00 | 0.53 | 0.00 | 97 | 1009.7 |
| 20260509063054 | 56 | 198 | 0.9 | 2.6 | 0.00 | 0.53 | 0.00 | 97 | 1009.6 |
| 20260509062553 | 56 | 163 | 0.0 | 0.0 | 0.00 | 0.53 | 0.00 | 97 | 1009.6 |
| 20260509062054 | 55 | 163 | 0.0 | 0.0 | 0.00 | 0.53 | 0.00 | 97 | 1009.6 |
| 20260509061556 | 55 | 163 | 0.0 | 0.0 | 0.00 | 0.53 | 0.00 | 97 | 1009.6 |
| 20260509061052 | 55 | 163 | 0.0 | 0.0 | 0.00 | 0.53 | 0.00 | 96 | 1009.6 |
| 20260509060653 | 55 | 163 | 0.0 | 0.0 | 0.00 | 0.53 | 0.00 | 96 | 1009.7 |
| 20260509060059 | 55 | 163 | 0.0 | 0.0 | 0.00 | 0.53 | 0.00 | 96 | 1009.7 |
| 20260509055555 | 54 | 163 | 0.0 | 0.0 | 0.00 | 0.53 | 0.00 | 96 | 1009.7 |
| 20260509055055 | 54 | 163 | 0.0 | 0.0 | 0.00 | 0.53 | 0.00 | 96 | 1009.6 |
| 20260509054613 | 54 | 163 | 0.0 | 0.0 | 0.00 | 0.53 | 0.00 | 96 | 1009.6 |
| 20260509054053 | 55 | 163 | 0.0 | 0.0 | 0.00 | 0.53 | 0.00 | 96 | 1009.5 |
| 20260509053552 | 55 | 163 | 0.0 | 0.0 | 0.00 | 0.53 | 0.00 | 96 | 1009.5 |
| 20260509053141 | 55 | 163 | 0.0 | 0.0 | 0.00 | 0.53 | 0.00 | 96 | 1009.6 |
| 20260509052555 | 55 | 143 | 0.0 | 0.0 | 0.01 | 0.53 | 0.00 | 96 | 1009.5 |
| 20260509052053 | 55 | 143 | 0.0 | 0.0 | 0.01 | 0.53 | 0.00 | 96 | 1009.3 |
| 20260509051553 | 56 | 143 | 0.0 | 0.9 | 0.01 | 0.53 | 0.00 | 96 | 1009.3 |
| 20260509051048 | 56 | 143 | 0.0 | 0.9 | 0.03 | 0.53 | 0.00 | 96 | 1009.2 |
| 20260509050649 | 56 | 143 | 0.0 | 0.9 | 0.05 | 0.53 | 0.00 | 96 | 1009.2 |
| 20260509050048 | 56 | 143 | 0.0 | 1.7 | 0.07 | 0.53 | 0.00 | 96 | 1009.1 |
| 20260509045545 | 56 | 144 | 0.0 | 2.6 | 0.10 | 0.53 | 0.53 | 96 | 1009.1 |
| 20260509045045 | 57 | 160 | 0.9 | 4.3 | 0.17 | 0.53 | 0.53 | 96 | 1009.2 |
| 20260509044548 | 57 | 168 | 1.7 | 4.3 | 0.25 | 0.53 | 0.53 | 96 | 1009.1 |
| 20260509044044 | 57 | 138 | 0.9 | 4.3 | 0.28 | 0.53 | 0.53 | 96 | 1009.2 |
| 20260509043545 | 57 | 170 | 0.9 | 6.1 | 0.30 | 0.53 | 0.53 | 96 | 1009.3 |
| 20260509043044 | 57 | 116 | 0.0 | 6.1 | 0.31 | 0.53 | 0.53 | 96 | 1009.4 |
| 20260509042544 | 57 | 112 | 0.9 | 3.5 | 0.33 | 0.52 | 0.52 | 96 | 1009.4 |
| 20260509042044 | 57 | 111 | 0.9 | 2.6 | 0.33 | 0.52 | 0.52 | 96 | 1009.5 |
| 20260509041544 | 57 | 144 | 0.0 | 1.7 | 0.33 | 0.52 | 0.52 | 96 | 1009.9 |
| 20260509041043 | 57 | 236 | 0.0 | 1.7 | 0.36 | 0.50 | 0.50 | 95 | 1010.1 |
| 20260509040643 | 57 | 75 | 0.0 | 3.5 | 0.43 | 0.48 | 0.48 | 95 | 1010.1 |
| 20260509040106 | 57 | 24 | 0.0 | 5.2 | 0.42 | 0.46 | 0.46 | 95 | 1010.4 |
| 20260509035546 | 57 | 313 | 1.7 | 5.2 | 0.38 | 0.42 | 0.42 | 95 | 1010.8 |
| 20260509035046 | 57 | 293 | 2.6 | 8.7 | 0.31 | 0.35 | 0.35 | 95 | 1010.6 |
| 20260509034557 | 57 | 24 | 2.6 | 10.4 | 0.24 | 0.28 | 0.28 | 95 | 1010.6 |
| 20260509034045 | 57 | 360 | 2.6 | 11.3 | 0.22 | 0.25 | 0.25 | 95 | 1010.2 |
| 20260509033544 | 57 | 319 | 3.5 | 11.3 | 0.20 | 0.23 | 0.23 | 95 | 1010.4 |
| 20260509033045 | 57 | 20 | 3.5 | 7.8 | 0.18 | 0.21 | 0.21 | 94 | 1010.4 |
| 20260509032545 | 58 | 340 | 1.7 | 5.2 | 0.16 | 0.19 | 0.19 | 94 | 1010.5 |
| 20260509032044 | 58 | 351 | 1.7 | 5.2 | 0.16 | 0.19 | 0.19 | 94 | 1010.1 |
| 20260509031544 | 58 | 5 | 3.5 | 8.7 | 0.16 | 0.19 | 0.19 | 94 | 1010.2 |
| 20260509031044 | 58 | 13 | 4.3 | 10.4 | 0.11 | 0.14 | 0.14 | 94 | 1010.7 |
| 20260509030644 | 58 | 311 | 3.5 | 10.4 | 0.02 | 0.05 | 0.05 | 94 | 1010.4 |
| 20260509030041 | 58 | 5 | 4.3 | 12.2 | 0.01 | 0.04 | 0.04 | 93 | 1009.2 |
| 20260509025540 | 58 | 5 | 5.2 | 12.2 | 0.01 | 0.04 | 0.04 | 93 | 1008.9 |
| 20260509025041 | 59 | 77 | 3.5 | 12.2 | 0.01 | 0.04 | 0.04 | 93 | 1009.2 |
| 20260509024543 | 59 | 324 | 2.6 | 10.4 | 0.01 | 0.04 | 0.04 | 94 | 1009.3 |
| 20260509024040 | 59 | 355 | 5.2 | 13.0 | 0.00 | 0.03 | 0.03 | 94 | 1009.3 |
| 20260509023539 | 58 | 17 | 1.7 | 13.0 | 0.00 | 0.03 | 0.03 | 94 | 1009.2 |
| 20260509023046 | 58 | 340 | 5.2 | 12.2 | 0.00 | 0.03 | 0.03 | 94 | 1009.0 |
| 20260509022539 | 59 | 315 | 4.3 | 10.4 | 0.00 | 0.03 | 0.03 | 94 | 1009.0 |
| 20260509022039 | 59 | 211 | 0.0 | 1.7 | 0.00 | 0.03 | 0.03 | 94 | 1007.8 |
| 20260509021539 | 59 | 164 | 0.0 | 3.5 | 0.00 | 0.03 | 0.03 | 94 | 1007.6 |
| 20260509021042 | 59 | 182 | 1.7 | 3.5 | 0.00 | 0.03 | 0.03 | 94 | 1007.6 |
| 20260509020507 | 58 | 160 | 0.9 | 3.5 | 0.00 | 0.03 | 0.03 | 94 | 1007.7 |
| 20260509020007 | 59 | 161 | 0.9 | 3.5 | 0.00 | 0.03 | 0.03 | 94 | 1007.7 |
| 20260509015508 | 59 | 157 | 0.9 | 2.6 | 0.00 | 0.03 | 0.03 | 94 | 1007.8 |
| 20260509015007 | 58 | 157 | 0.0 | 2.6 | 0.00 | 0.03 | 0.03 | 94 | 1008.0 |
| 20260509014506 | 58 | 142 | 0.9 | 2.6 | 0.01 | 0.03 | 0.03 | 94 | 1008.1 |
| 20260509014006 | 59 | 186 | 0.0 | 2.6 | 0.01 | 0.03 | 0.03 | 94 | 1008.3 |
| 20260509013507 | 59 | 117 | 0.9 | 2.6 | 0.01 | 0.03 | 0.03 | 94 | 1008.4 |
| 20260509013007 | 59 | 150 | 0.9 | 2.6 | 0.01 | 0.03 | 0.03 | 94 | 1008.3 |
| 20260509012506 | 59 | 166 | 0.0 | 2.6 | 0.02 | 0.03 | 0.03 | 94 | 1008.4 |
| 20260509012007 | 59 | 155 | 0.9 | 2.6 | 0.02 | 0.03 | 0.03 | 93 | 1008.4 |
| 20260509011506 | 59 | 145 | 0.0 | 1.7 | 0.03 | 0.03 | 0.03 | 93 | 1008.3 |
| 20260509011108 | 59 | 124 | 0.0 | 3.5 | 0.03 | 0.03 | 0.03 | 93 | 1008.4 |
| 20260509010651 | 59 | 136 | 0.0 | 3.5 | 0.03 | 0.03 | 0.03 | 93 | 1007.2 |
| 20260509010056 | 59 | 125 | 0.9 | 1.7 | 0.03 | 0.03 | 0.03 | 92 | 1007.6 |
| 20260509005556 | 59 | 107 | 0.0 | 0.9 | 0.03 | 0.03 | 0.03 | 92 | 1007.7 |
| 20260509005055 | 59 | 70 | 0.0 | 2.6 | 0.03 | 0.03 | 0.03 | 91 | 1007.7 |
| 20260509004554 | 60 | 69 | 0.9 | 2.6 | 0.02 | 0.02 | 0.02 | 91 | 1007.7 |
| 20260509004054 | 60 | 114 | 0.9 | 3.5 | 0.02 | 0.02 | 0.02 | 90 | 1008.0 |
| 20260509003555 | 60 | 294 | 0.9 | 3.5 | 0.02 | 0.02 | 0.02 | 88 | 1007.9 |
| 20260509003118 | 61 | 347 | 0.9 | 2.6 | 0.02 | 0.02 | 0.02 | 86 | 1007.8 |
| 20260509002554 | 62 | 292 | 0.9 | 7.8 | 0.01 | 0.01 | 0.01 | 82 | 1007.8 |
| 20260509002055 | 63 | 240 | 1.7 | 10.4 | 0.01 | 0.01 | 0.01 | 78 | 1007.8 |
| 20260509001602 | 65 | 301 | 4.3 | 14.8 | 0.00 | 0.00 | 0.00 | 73 | 1007.9 |
| 20260509001054 | 67 | 321 | 4.3 | 15.6 | 0.00 | 0.00 | 0.00 | 68 | 1007.8 |
| 20260509000654 | 69 | 290 | 7.0 | 15.6 | 0.00 | 0.00 | 0.00 | 67 | 1007.9 |
| 20260509000108 | 69 | 165 | 0.0 | 1.7 | 0.00 | 0.00 | 0.00 | 67 | 1007.4 |
| 20260508235552 | 69 | 189 | 0.0 | 2.6 | 0.00 | 0.00 | 0.00 | 68 | 1007.4 |
| 20260508235052 | 70 | 201 | 0.0 | 4.3 | 0.00 | 0.00 | 0.00 | 67 | 1007.3 |
| 20260508234551 | 70 | 194 | 0.9 | 4.3 | 0.00 | 0.00 | 0.00 | 64 | 1007.3 |
| 20260508234053 | 70 | 209 | 0.0 | 0.9 | 0.00 | 0.00 | 0.00 | 65 | 1007.4 |
| 20260508233551 | 71 | 210 | 0.0 | 1.7 | 0.00 | 0.00 | 0.00 | 64 | 1007.5 |
| 20260508233051 | 71 | 196 | 0.9 | 1.7 | 0.00 | 0.00 | 0.00 | 63 | 1007.6 |
| 20260508232550 | 71 | 240 | 0.0 | 2.6 | 0.00 | 0.00 | 0.00 | 67 | 1007.6 |
| 20260508232050 | 72 | 240 | 0.0 | 2.6 | 0.00 | 0.00 | 0.00 | 60 | 1007.6 |
| 20260508231552 | 72 | 186 | 0.9 | 4.3 | 0.00 | 0.00 | 0.00 | 58 | 1007.6 |
| 20260508231050 | 72 | 200 | 1.7 | 5.2 | 0.00 | 0.00 | 0.00 | 57 | 1007.6 |
| 20260508230652 | 73 | 197 | 1.7 | 7.8 | 0.00 | 0.00 | 0.00 | 55 | 1007.7 |
| 20260508225600 | 73 | 178 | 1.7 | 6.1 | 0.00 | 0.00 | 0.00 | 56 | 1007.6 |
| 20260508225101 | 73 | 158 | 2.6 | 6.1 | 0.00 | 0.00 | 0.00 | 57 | 1007.6 |
| 20260508224607 | 73 | 191 | 1.7 | 7.0 | 0.00 | 0.00 | 0.00 | 56 | 1007.6 |
| 20260508224058 | 73 | 196 | 2.6 | 7.0 | 0.00 | 0.00 | 0.00 | 55 | 1007.6 |
| 20260508223558 | 73 | 182 | 0.9 | 4.3 | 0.00 | 0.00 | 0.00 | 55 | 1007.7 |
| 20260508223058 | 73 | 203 | 0.9 | 8.7 | 0.00 | 0.00 | 0.00 | 58 | 1007.6 |
| 20260508222557 | 73 | 223 | 2.6 | 9.6 | 0.00 | 0.00 | 0.00 | 52 | 1007.7 |
| 20260508222057 | 74 | 31 | 3.5 | 9.6 | 0.00 | 0.00 | 0.00 | 54 | 1007.7 |
| 20260508221559 | 74 | 324 | 0.0 | 6.1 | 0.00 | 0.00 | 0.00 | 52 | 1007.8 |
| 20260508221057 | 74 | 205 | 1.7 | 6.1 | 0.00 | 0.00 | 0.00 | 54 | 1007.8 |
| 20260508220657 | 75 | 195 | 0.9 | 8.7 | 0.00 | 0.00 | 0.00 | 53 | 1007.8 |
| 20260508220058 | 74 | 188 | 3.5 | 8.7 | 0.00 | 0.00 | 0.00 | 51 | 1007.8 |
| 20260508215558 | 75 | 317 | 3.5 | 8.7 | 0.00 | 0.00 | 0.00 | 51 | 1007.7 |
| 20260508215100 | 75 | 347 | 1.7 | 7.0 | 0.00 | 0.00 | 0.00 | 54 | 1007.7 |
| 20260508214557 | 74 | 220 | 1.7 | 5.2 | 0.00 | 0.00 | 0.00 | 52 | 1007.8 |
| 20260508214056 | 74 | 159 | 1.7 | 7.8 | 0.00 | 0.00 | 0.00 | 52 | 1007.8 |
| 20260508213557 | 74 | 228 | 3.5 | 7.8 | 0.00 | 0.00 | 0.00 | 50 | 1007.9 |
| 20260508213102 | 75 | 270 | 1.7 | 7.0 | 0.00 | 0.00 | 0.00 | 51 | 1008.0 |
| 20260508212555 | 75 | 230 | 1.7 | 7.0 | 0.00 | 0.00 | 0.00 | 52 | 1008.0 |
| 20260508212054 | 75 | 173 | 0.9 | 6.1 | 0.00 | 0.00 | 0.00 | 52 | 1008.1 |
| 20260508211553 | 75 | 181 | 1.7 | 7.8 | 0.00 | 0.00 | 0.00 | 56 | 1008.1 |
| 20260508211057 | 75 | 117 | 1.7 | 7.8 | 0.00 | 0.00 | 0.00 | 55 | 1008.2 |
| 20260508210652 | 74 | 214 | 2.6 | 7.8 | 0.00 | 0.00 | 0.00 | 53 | 1008.3 |
| 20260508210058 | 73 | 173 | 1.7 | 7.8 | 0.00 | 0.00 | 0.00 | 55 | 1008.4 |
| 20260508205557 | 73 | 177 | 2.6 | 7.8 | 0.00 | 0.00 | 0.00 | 52 | 1008.6 |
| 20260508205057 | 74 | 36 | 1.7 | 7.0 | 0.00 | 0.00 | 0.00 | 53 | 1008.6 |
| 20260508204556 | 75 | 33 | 1.7 | 7.0 | 0.00 | 0.00 | 0.00 | 51 | 1008.7 |
| 20260508204055 | 73 | 229 | 0.9 | 5.2 | 0.00 | 0.00 | 0.00 | 55 | 1008.8 |
| 20260508203557 | 73 | 205 | 0.9 | 6.1 | 0.00 | 0.00 | 0.00 | 53 | 1008.9 |
| 20260508203055 | 73 | 182 | 1.7 | 6.1 | 0.00 | 0.00 | 0.00 | 53 | 1008.9 |
| 20260508202553 | 73 | 187 | 1.7 | 6.1 | 0.00 | 0.00 | 0.00 | 52 | 1009.1 |
| 20260508202052 | 74 | 150 | 2.6 | 7.0 | 0.00 | 0.00 | 0.00 | 55 | 1009.4 |
| 20260508201602 | 73 | 192 | 2.6 | 7.0 | 0.00 | 0.00 | 0.00 | 52 | 1009.4 |
| 20260508201051 | 72 | 327 | 3.5 | 7.8 | 0.00 | 0.00 | 0.00 | 54 | 1009.5 |
| 20260508200650 | 72 | 307 | 1.7 | 7.8 | 0.00 | 0.00 | 0.00 | 56 | 1009.6 |
| 20260508200106 | 71 | 201 | 0.9 | 6.1 | 0.00 | 0.00 | 0.00 | 52 | 1009.6 |
| 20260508195554 | 71 | 197 | 1.7 | 6.1 | 0.00 | 0.00 | 0.00 | 52 | 1009.7 |
| 20260508195054 | 71 | 273 | 1.7 | 7.0 | 0.00 | 0.00 | 0.00 | 51 | 1009.8 |
| 20260508194557 | 71 | 314 | 2.6 | 7.8 | 0.00 | 0.00 | 0.00 | 54 | 1009.9 |
| 20260508194055 | 71 | 198 | 2.6 | 8.7 | 0.00 | 0.00 | 0.00 | 51 | 1009.8 |
| 20260508193552 | 71 | 199 | 1.7 | 7.0 | 0.00 | 0.00 | 0.00 | 54 | 1010.0 |
| 20260508193100 | 72 | 171 | 1.7 | 7.8 | 0.00 | 0.00 | 0.00 | 55 | 1010.1 |
| 20260508192551 | 72 | 199 | 2.6 | 8.7 | 0.00 | 0.00 | 0.00 | 54 | 1010.1 |
| 20260508192050 | 72 | 193 | 2.6 | 8.7 | 0.00 | 0.00 | 0.00 | 49 | 1010.1 |
| 20260508191550 | 73 | 240 | 2.6 | 8.7 | 0.00 | 0.00 | 0.00 | 50 | 1010.2 |
| 20260508191048 | 73 | 184 | 2.6 | 8.7 | 0.00 | 0.00 | 0.00 | 52 | 1010.2 |
| 20260508190649 | 73 | 155 | 2.6 | 8.7 | 0.00 | 0.00 | 0.00 | 50 | 1010.2 |
| 20260508190048 | 73 | 163 | 4.3 | 8.7 | 0.00 | 0.00 | 0.00 | 49 | 1010.3 |
| 20260508185549 | 73 | 196 | 3.5 | 12.2 | 0.00 | 0.00 | 0.00 | 50 | 1010.4 |
| 20260508185045 | 73 | 188 | 5.2 | 12.2 | 0.00 | 0.00 | 0.00 | 50 | 1010.5 |
| 20260508184554 | 73 | 175 | 5.2 | 13.9 | 0.00 | 0.00 | 0.00 | 47 | 1010.4 |
| 20260508184043 | 73 | 31 | 4.3 | 13.9 | 0.00 | 0.00 | 0.00 | 47 | 1010.6 |
| 20260508183543 | 74 | 204 | 3.5 | 10.4 | 0.00 | 0.00 | 0.00 | 50 | 1010.6 |
| 20260508183049 | 73 | 125 | 3.5 | 18.2 | 0.00 | 0.00 | 0.00 | 50 | 1010.6 |
| 20260508182541 | 73 | 203 | 3.5 | 18.2 | 0.00 | 0.00 | 0.00 | 50 | 1010.7 |
| 20260508182041 | 74 | 182 | 3.5 | 12.2 | 0.00 | 0.00 | 0.00 | 48 | 1010.6 |
| 20260508181543 | 74 | 204 | 3.5 | 11.3 | 0.00 | 0.00 | 0.00 | 49 | 1010.7 |
| 20260508181040 | 75 | 202 | 2.6 | 8.7 | 0.00 | 0.00 | 0.00 | 51 | 1010.7 |
| 20260508180507 | 74 | 205 | 2.6 | 8.7 | 0.00 | 0.00 | 0.00 | 52 | 1010.8 |
| 20260508180005 | 74 | 213 | 1.7 | 8.7 | 0.00 | 0.00 | 0.00 | 49 | 1010.8 |
| 20260508175505 | 74 | 198 | 3.5 | 9.6 | 0.00 | 0.00 | 0.00 | 49 | 1011.0 |
| 20260508175003 | 74 | 97 | 0.9 | 7.8 | 0.00 | 0.00 | 0.00 | 55 | 1011.0 |
| 20260508174503 | 73 | 214 | 3.5 | 7.8 | 0.00 | 0.00 | 0.00 | 47 | 1011.1 |
| 20260508174002 | 73 | 178 | 2.6 | 7.8 | 0.00 | 0.00 | 0.00 | 50 | 1011.2 |
| 20260508173501 | 73 | 5 | 2.6 | 8.7 | 0.00 | 0.00 | 0.00 | 49 | 1011.1 |
| 20260508173100 | 73 | 210 | 4.3 | 11.3 | 0.00 | 0.00 | 0.00 | 49 | 1011.3 |
| 20260508172602 | 73 | 184 | 4.3 | 11.3 | 0.00 | 0.00 | 0.00 | 49 | 1011.5 |
| 20260508172100 | 73 | 196 | 4.3 | 11.3 | 0.00 | 0.00 | 0.00 | 49 | 1011.5 |
| 20260508171600 | 72 | 298 | 3.5 | 11.3 | 0.00 | 0.00 | 0.00 | 49 | 1011.5 |
| 20260508171100 | 72 | 259 | 3.5 | 10.4 | 0.00 | 0.00 | 0.00 | 52 | 1011.5 |
| 20260508170502 | 72 | 246 | 2.6 | 8.7 | 0.00 | 0.00 | 0.00 | 52 | 1011.8 |
| 20260508170002 | 72 | 276 | 4.3 | 8.7 | 0.00 | 0.00 | 0.00 | 52 | 1012.0 |
| 20260508165500 | 72 | 228 | 2.6 | 8.7 | 0.00 | 0.00 | 0.00 | 58 | 1012.0 |
| 20260508165059 | 71 | 295 | 1.7 | 9.6 | 0.00 | 0.00 | 0.00 | 52 | 1012.1 |
| 20260508164605 | 71 | 269 | 1.7 | 9.6 | 0.00 | 0.00 | 0.00 | 50 | 1012.3 |
| 20260508164059 | 71 | 279 | 2.6 | 6.1 | 0.00 | 0.00 | 0.00 | 53 | 1012.3 |
| 20260508163557 | 71 | 337 | 1.7 | 7.8 | 0.00 | 0.00 | 0.00 | 54 | 1012.4 |
| 20260508163117 | 71 | 279 | 2.6 | 7.8 | 0.00 | 0.00 | 0.00 | 55 | 1012.4 |
| 20260508162557 | 71 | 205 | 4.3 | 7.8 | 0.00 | 0.00 | 0.00 | 52 | 1012.5 |
| 20260508162056 | 71 | 188 | 0.9 | 7.8 | 0.00 | 0.00 | 0.00 | 58 | 1012.6 |
| 20260508161556 | 70 | 150 | 2.6 | 9.6 | 0.00 | 0.00 | 0.00 | 54 | 1012.7 |
| 20260508161053 | 69 | 230 | 2.6 | 10.4 | 0.00 | 0.00 | 0.00 | 68 | 1012.7 |
| 20260508160501 | 68 | 304 | 0.9 | 3.5 | 0.00 | 0.00 | 0.00 | 65 | 1013.1 |
| 20260508160100 | 67 | 340 | 0.9 | 3.5 | 0.00 | 0.00 | 0.00 | 68 | 1013.1 |
| 20260508155559 | 66 | 271 | 0.0 | 4.3 | 0.00 | 0.00 | 0.00 | 71 | 1013.0 |
| 20260508155101 | 66 | 243 | 0.9 | 4.3 | 0.00 | 0.00 | 0.00 | 68 | 1013.0 |
| 20260508154559 | 66 | 279 | 0.0 | 2.6 | 0.00 | 0.00 | 0.00 | 68 | 1013.3 |
| 20260508154054 | 65 | 315 | 0.0 | 7.8 | 0.00 | 0.00 | 0.00 | 70 | 1013.2 |
| 20260508153554 | 64 | 204 | 0.9 | 7.8 | 0.00 | 0.00 | 0.00 | 70 | 1013.3 |
| 20260508153056 | 64 | 278 | 0.9 | 2.6 | 0.00 | 0.00 | 0.00 | 69 | 1013.4 |
| 20260508152552 | 64 | 273 | 0.9 | 3.5 | 0.00 | 0.00 | 0.00 | 67 | 1013.5 |
| 20260508152052 | 64 | 193 | 0.9 | 3.5 | 0.00 | 0.00 | 0.00 | 70 | 1013.4 |
| 20260508151552 | 64 | 194 | 0.0 | 3.5 | 0.00 | 0.00 | 0.00 | 72 | 1013.4 |
| 20260508151050 | 63 | 265 | 0.9 | 3.5 | 0.00 | 0.00 | 0.00 | 71 | 1013.5 |
| 20260508150648 | 62 | 65 | 0.0 | 6.1 | 0.00 | 0.00 | 0.00 | 71 | 1013.6 |
| 20260508150052 | 61 | 194 | 0.9 | 6.1 | 0.00 | 0.00 | 0.00 | 72 | 1013.5 |
| 20260508145550 | 61 | 146 | 1.7 | 5.2 | 0.00 | 0.00 | 0.00 | 73 | 1013.4 |
| 20260508145052 | 61 | 244 | 2.6 | 6.1 | 0.00 | 0.00 | 0.00 | 70 | 1013.3 |
| 20260508144549 | 60 | 188 | 1.7 | 4.3 | 0.00 | 0.00 | 0.00 | 71 | 1013.5 |
| 20260508144047 | 59 | 199 | 0.0 | 6.1 | 0.00 | 0.00 | 0.00 | 77 | 1013.6 |
| 20260508143546 | 59 | 202 | 0.9 | 6.1 | 0.00 | 0.00 | 0.00 | 74 | 1013.5 |
| 20260508143048 | 58 | 151 | 0.9 | 3.5 | 0.00 | 0.00 | 0.00 | 73 | 1013.7 |
| 20260508142544 | 58 | 190 | 1.7 | 4.3 | 0.00 | 0.00 | 0.00 | 74 | 1013.8 |
| 20260508142048 | 58 | 174 | 1.7 | 5.2 | 0.00 | 0.00 | 0.00 | 75 | 1013.8 |
| 20260508141545 | 58 | 161 | 1.7 | 5.2 | 0.00 | 0.00 | 0.00 | 72 | 1013.9 |
| 20260508141044 | 58 | 134 | 0.9 | 5.2 | 0.00 | 0.00 | 0.00 | 75 | 1013.9 |
| 20260508140646 | 58 | 179 | 2.6 | 5.2 | 0.00 | 0.00 | 0.00 | 73 | 1014.0 |
| 20260508140053 | 58 | 162 | 1.7 | 7.0 | 0.00 | 0.00 | 0.00 | 72 | 1014.0 |
| 20260508135553 | 58 | 196 | 2.6 | 7.0 | 0.00 | 0.00 | 0.00 | 73 | 1014.0 |
| 20260508135052 | 58 | 137 | 1.7 | 7.0 | 0.00 | 0.00 | 0.00 | 73 | 1014.0 |
| 20260508134550 | 57 | 174 | 0.9 | 5.2 | 0.00 | 0.00 | 0.00 | 77 | 1014.0 |
| 20260508134048 | 57 | 169 | 1.7 | 6.1 | 0.00 | 0.00 | 0.00 | 76 | 1014.0 |
| 20260508133550 | 57 | 136 | 2.6 | 6.1 | 0.00 | 0.00 | 0.00 | 75 | 1014.1 |
| 20260508133048 | 56 | 121 | 0.9 | 5.2 | 0.00 | 0.00 | 0.00 | 80 | 1014.2 |
| 20260508132545 | 56 | 194 | 0.9 | 5.2 | 0.00 | 0.00 | 0.00 | 81 | 1014.1 |
| 20260508132042 | 55 | 146 | 0.9 | 5.2 | 0.00 | 0.00 | 0.00 | 84 | 1014.1 |
| 20260508131552 | 55 | 100 | 0.9 | 7.0 | 0.00 | 0.00 | 0.00 | 83 | 1014.2 |
| 20260508131042 | 55 | 98 | 1.7 | 7.0 | 0.00 | 0.00 | 0.00 | 83 | 1014.2 |
| 20260508130511 | 54 | 159 | 3.5 | 7.8 | 0.00 | 0.00 | 0.00 | 81 | 1014.1 |
| 20260508130012 | 54 | 166 | 2.6 | 7.0 | 0.00 | 0.00 | 0.00 | 84 | 1014.0 |
| 20260508125509 | 53 | 184 | 1.7 | 5.2 | 0.00 | 0.00 | 0.00 | 86 | 1013.9 |
| 20260508125008 | 52 | 163 | 1.7 | 5.2 | 0.00 | 0.00 | 0.00 | 88 | 1013.9 |
| 20260508124506 | 50 | 163 | 0.9 | 2.6 | 0.00 | 0.00 | 0.00 | 91 | 1014.0 |
| 20260508124005 | 50 | 216 | 0.0 | 6.1 | 0.00 | 0.00 | 0.00 | 90 | 1014.1 |
| 20260508123505 | 50 | 204 | 0.9 | 6.1 | 0.00 | 0.00 | 0.00 | 90 | 1014.1 |
| 20260508123006 | 50 | 175 | 0.9 | 5.2 | 0.00 | 0.00 | 0.00 | 90 | 1014.0 |
| 20260508122501 | 49 | 90 | 0.9 | 5.2 | 0.00 | 0.00 | 0.00 | 89 | 1014.0 |
| 20260508122002 | 49 | 134 | 0.9 | 2.6 | 0.00 | 0.00 | 0.00 | 89 | 1013.9 |
| 20260508121600 | 48 | 144 | 0.9 | 3.5 | 0.00 | 0.00 | 0.00 | 89 | 1013.9 |
| 20260508121058 | 48 | 126 | 1.7 | 3.5 | 0.00 | 0.00 | 0.00 | 89 | 1013.9 |
| 20260508120508 | 47 | 134 | 0.9 | 3.5 | 0.00 | 0.00 | 0.00 | 89 | 1013.8 |
| 20260508120004 | 47 | 121 | 0.9 | 2.6 | 0.00 | 0.00 | 0.00 | 90 | 1013.7 |
| 20260508115503 | 46 | 155 | 0.9 | 2.6 | 0.00 | 0.00 | 0.00 | 91 | 1013.7 |
| 20260508115100 | 46 | 126 | 0.9 | 2.6 | 0.00 | 0.00 | 0.00 | 91 | 1013.6 |
| 20260508114559 | 45 | 121 | 1.7 | 3.5 | 0.00 | 0.00 | 0.00 | 91 | 1013.7 |
| 20260508114058 | 45 | 130 | 0.9 | 3.5 | 0.00 | 0.00 | 0.00 | 90 | 1013.7 |
| 20260508113557 | 45 | 134 | 0.9 | 4.3 | 0.00 | 0.00 | 0.00 | 90 | 1013.7 |
| 20260508113059 | 45 | 159 | 0.9 | 4.3 | 0.00 | 0.00 | 0.00 | 90 | 1013.7 |
| 20260508112555 | 45 | 159 | 0.9 | 4.3 | 0.00 | 0.00 | 0.00 | 89 | 1013.6 |
| 20260508112055 | 45 | 130 | 0.9 | 5.2 | 0.00 | 0.00 | 0.00 | 89 | 1013.4 |
| 20260508111556 | 45 | 129 | 2.6 | 5.2 | 0.00 | 0.00 | 0.00 | 90 | 1013.4 |
| 20260508111054 | 45 | 136 | 0.9 | 3.5 | 0.00 | 0.00 | 0.00 | 90 | 1013.4 |
| 20260508110655 | 45 | 161 | 1.7 | 4.3 | 0.00 | 0.00 | 0.00 | 90 | 1013.4 |
| 20260508110123 | 45 | 161 | 1.7 | 4.3 | 0.00 | 0.00 | 0.00 | 90 | 1013.6 |
| 20260508105556 | 45 | 144 | 1.7 | 4.3 | 0.00 | 0.00 | 0.00 | 90 | 1013.5 |
| 20260508105056 | 45 | 127 | 0.9 | 2.6 | 0.00 | 0.00 | 0.00 | 90 | 1013.6 |
| 20260508104602 | 45 | 144 | 0.9 | 4.3 | 0.00 | 0.00 | 0.00 | 90 | 1013.7 |
| 20260508104055 | 45 | 126 | 0.9 | 4.3 | 0.00 | 0.00 | 0.00 | 90 | 1013.7 |
| 20260508103554 | 45 | 124 | 0.9 | 3.5 | 0.00 | 0.00 | 0.00 | 90 | 1013.6 |
| 20260508103057 | 45 | 133 | 0.9 | 2.6 | 0.00 | 0.00 | 0.00 | 91 | 1013.6 |
| 20260508102552 | 44 | 136 | 0.0 | 2.6 | 0.00 | 0.00 | 0.00 | 92 | 1013.6 |
| 20260508102054 | 44 | 117 | 0.9 | 2.6 | 0.00 | 0.00 | 0.00 | 92 | 1013.7 |
| 20260508101555 | 44 | 138 | 0.9 | 2.6 | 0.00 | 0.00 | 0.00 | 92 | 1013.7 |
| 20260508101051 | 44 | 150 | 0.9 | 2.6 | 0.00 | 0.00 | 0.00 | 92 | 1013.8 |
| 20260508100651 | 44 | 155 | 0.0 | 2.6 | 0.00 | 0.00 | 0.00 | 92 | 1013.9 |
| 20260508100053 | 44 | 165 | 0.9 | 2.6 | 0.00 | 0.00 | 0.00 | 93 | 1013.9 |
| 20260508095557 | 44 | 151 | 0.9 | 2.6 | 0.00 | 0.00 | 0.00 | 93 | 1014.0 |
| 20260508095054 | 44 | 142 | 0.9 | 2.6 | 0.00 | 0.00 | 0.00 | 93 | 1013.9 |
| 20260508094555 | 43 | 138 | 0.9 | 2.6 | 0.00 | 0.00 | 0.00 | 93 | 1013.9 |
| 20260508094051 | 43 | 155 | 0.0 | 2.6 | 0.00 | 0.00 | 0.00 | 93 | 1013.8 |
| 20260508093551 | 43 | 136 | 0.0 | 2.6 | 0.00 | 0.00 | 0.00 | 93 | 1013.9 |
| 20260508093058 | 43 | 136 | 0.0 | 0.9 | 0.00 | 0.00 | 0.00 | 93 | 1013.9 |
| 20260508092549 | 43 | 136 | 0.0 | 0.9 | 0.00 | 0.00 | 0.00 | 93 | 1014.0 |
| 20260508092048 | 44 | 142 | 0.0 | 0.9 | 0.00 | 0.00 | 0.00 | 93 | 1014.0 |
| 20260508091549 | 43 | 142 | 0.0 | 0.0 | 0.00 | 0.00 | 0.00 | 93 | 1013.9 |
| 20260508091048 | 43 | 142 | 0.0 | 0.0 | 0.00 | 0.00 | 0.00 | 93 | 1014.0 |
| 20260508090650 | 43 | 142 | 0.0 | 1.7 | 0.00 | 0.00 | 0.00 | 93 | 1014.0 |
| 20260508090104 | 43 | 142 | 0.0 | 1.7 | 0.00 | 0.00 | 0.00 | 93 | 1013.9 |
| 20260508085546 | 43 | 145 | 0.0 | 0.9 | 0.00 | 0.00 | 0.00 | 93 | 1014.1 |
| 20260508085045 | 43 | 145 | 0.0 | 0.9 | 0.00 | 0.00 | 0.00 | 93 | 1014.1 |
| 20260508084545 | 44 | 144 | 0.0 | 0.9 | 0.00 | 0.00 | 0.00 | 93 | 1014.1 |
| 20260508084048 | 43 | 132 | 0.0 | 0.9 | 0.00 | 0.00 | 0.00 | 93 | 1014.2 |
| 20260508083548 | 43 | 132 | 0.0 | 0.9 | 0.00 | 0.00 | 0.00 | 93 | 1014.2 |
| 20260508083044 | 43 | 132 | 0.0 | 0.9 | 0.00 | 0.00 | 0.00 | 93 | 1014.2 |
| 20260508082544 | 43 | 153 | 0.0 | 2.6 | 0.00 | 0.00 | 0.00 | 93 | 1014.2 |
| 20260508082044 | 43 | 153 | 0.0 | 2.6 | 0.00 | 0.00 | 0.00 | 93 | 1014.2 |
| 20260508081545 | 43 | 123 | 0.0 | 0.9 | 0.00 | 0.00 | 0.00 | 93 | 1014.2 |
| 20260508081042 | 44 | 157 | 0.0 | 0.9 | 0.00 | 0.00 | 0.00 | 93 | 1014.1 |
| 20260508080643 | 44 | 157 | 0.0 | 0.9 | 0.00 | 0.00 | 0.00 | 93 | 1014.2 |
| 20260508080104 | 44 | 157 | 0.0 | 0.9 | 0.00 | 0.00 | 0.00 | 93 | 1014.1 |
| 20260508075559 | 44 | 157 | 0.0 | 0.9 | 0.00 | 0.00 | 0.00 | 93 | 1014.2 |
| 20260508075057 | 44 | 157 | 0.0 | 0.9 | 0.00 | 0.00 | 0.00 | 93 | 1014.4 |
| 20260508074557 | 44 | 157 | 0.0 | 0.9 | 0.00 | 0.00 | 0.00 | 92 | 1014.2 |
| 20260508074059 | 43 | 157 | 0.0 | 0.9 | 0.00 | 0.00 | 0.00 | 92 | 1014.4 |
| 20260508073557 | 44 | 157 | 0.0 | 0.9 | 0.00 | 0.00 | 0.00 | 92 | 1014.4 |
| 20260508073057 | 44 | 157 | 0.0 | 0.9 | 0.00 | 0.00 | 0.00 | 92 | 1014.4 |
| 20260508072556 | 44 | 157 | 0.0 | 0.9 | 0.00 | 0.00 | 0.00 | 92 | 1014.4 |
| 20260508072057 | 44 | 157 | 0.0 | 0.9 | 0.00 | 0.00 | 0.00 | 92 | 1014.4 |
| 20260508071554 | 44 | 157 | 0.0 | 0.0 | 0.00 | 0.00 | 0.00 | 92 | 1014.5 |